• In Österreich
  • Länderverzeichnis
  • Für 7 Tage
  • Wassertemperatur
  • Satellitenkarten
  • Wetterkarte
  • News
  • Widgets
  • user-avatar
    Anmelden

    Stündliche Wetter Asfi

    Heute, 19 September, Mittwoch

    Zeit Temperatur Niederschläge Wind Luftdruck Luftfeuchtigkeit
    00:00 +30°C° 0 mm 3 m/S 743 mmHg 35%
    01:00 +30°C° 0 mm 4 m/S 743 mmHg 36%
    02:00 +29°C° 0 mm 4 m/S 743 mmHg 39%
    03:00 +28°C° 0 mm 3 m/S 743 mmHg 41%
    04:00 +28°C° 0 mm 3 m/S 743 mmHg 44%
    05:00 +28°C° 0 mm 3 m/S 743 mmHg 43%
    06:00 +28°C° 0 mm 3 m/S 743 mmHg 43%
    07:00 +28°C° 0 mm 3 m/S 743 mmHg 43%
    08:00 +30°C° 0 mm 3 m/S 743 mmHg 37%
    09:00 +33°C° 0 mm 3 m/S 744 mmHg 32%
    10:00 +35°C° 0 mm 3 m/S 744 mmHg 27%
    11:00 +36°C° 0 mm 3 m/S 744 mmHg 25%
    12:00 +37°C° 0 mm 2 m/S 744 mmHg 23%
    13:00 +38°C° 0 mm 2 m/S 743 mmHg 21%
    14:00 +38°C° 0 mm 2 m/S 743 mmHg 20%
    15:00 +38°C° 0 mm 3 m/S 742 mmHg 20%
    16:00 +38°C° 0 mm 3 m/S 742 mmHg 19%
    17:00 +37°C° 0 mm 3 m/S 742 mmHg 21%
    18:00 +36°C° 0 mm 3 m/S 742 mmHg 22%
    19:00 +35°C° 0 mm 3 m/S 742 mmHg 23%
    20:00 +35°C° 0 mm 3 m/S 742 mmHg 24%
    21:00 +34°C° 0 mm 3 m/S 743 mmHg 26%
    22:00 +34°C° 0 mm 3 m/S 743 mmHg 27%
    23:00 +33°C° 0 mm 4 m/S 743 mmHg 30%

    Morgen, 20 September, Donnerstag

    Zeit Temperatur Niederschläge Wind Luftdruck Luftfeuchtigkeit
    00:00 +32°C° 0 mm 4 m/S 743 mmHg 33%
    01:00 +32°C° 0 mm 4 m/S 742 mmHg 36%
    02:00 +30°C° 0 mm 4 m/S 742 mmHg 37%
    03:00 +30°C° 0 mm 3 m/S 742 mmHg 39%
    04:00 +29°C° 0 mm 3 m/S 742 mmHg 41%
    05:00 +29°C° 0 mm 3 m/S 742 mmHg 40%
    06:00 +29°C° 0 mm 3 m/S 742 mmHg 40%
    07:00 +29°C° 0 mm 3 m/S 742 mmHg 40%
    08:00 +31°C° 0 mm 3 m/S 742 mmHg 36%
    09:00 +33°C° 0 mm 3 m/S 742 mmHg 31%
    10:00 +35°C° 0 mm 3 m/S 743 mmHg 27%
    11:00 +36°C° 0 mm 2 m/S 742 mmHg 25%
    12:00 +36°C° 0 mm 1 m/S 742 mmHg 23%
    13:00 +36°C° 0 mm 1 m/S 742 mmHg 21%
    14:00 +37°C° 0 mm 1 m/S 741 mmHg 20%
    15:00 +37°C° 0 mm 1 m/S 741 mmHg 19%
    16:00 +37°C° 0 mm 1 m/S 740 mmHg 19%
    17:00 +36°C° 0 mm 1 m/S 740 mmHg 20%
    18:00 +36°C° 0 mm 2 m/S 740 mmHg 21%
    19:00 +35°C° 0 mm 2 m/S 740 mmHg 22%
    20:00 +35°C° 0 mm 2 m/S 740 mmHg 24%
    21:00 +34°C° 0 mm 2 m/S 740 mmHg 26%
    22:00 +32°C° 0 mm 2 m/S 741 mmHg 28%
    23:00 +33°C° 0 mm 3 m/S 741 mmHg 29%

    übermorgen, 21 September, Freitag

    Zeit Temperatur Niederschläge Wind Luftdruck Luftfeuchtigkeit
    00:00 +31°C° 0 mm 3 m/S 741 mmHg 31%
    01:00 +32°C° 0 mm 4 m/S 740 mmHg 33%
    02:00 +30°C° 0 mm 3 m/S 740 mmHg 35%
    03:00 +30°C° 0 mm 3 m/S 740 mmHg 36%
    04:00 +29°C° 0 mm 3 m/S 739 mmHg 37%
    05:00 +29°C° 0 mm 3 m/S 740 mmHg 37%
    06:00 +29°C° 0 mm 3 m/S 740 mmHg 36%
    07:00 +29°C° 0 mm 3 m/S 740 mmHg 36%
    08:00 +31°C° 0 mm 3 m/S 740 mmHg 31%
    09:00 +34°C° 0 mm 3 m/S 741 mmHg 27%
    10:00 +36°C° 0 mm 3 m/S 741 mmHg 22%
    11:00 +37°C° 0 mm 2 m/S 741 mmHg 21%
    12:00 +37°C° 0 mm 1 m/S 741 mmHg 19%
    13:00 +35°C° 0 mm 0 m/S 740 mmHg 18%
    14:00 +37°C° 0 mm 1 m/S 740 mmHg 18%
    15:00 +37°C° 0 mm 1 m/S 740 mmHg 17%
    16:00 +38°C° 0 mm 2 m/S 739 mmHg 17%
    17:00 +38°C° 0 mm 2 m/S 740 mmHg 18%
    18:00 +37°C° 0 mm 2 m/S 740 mmHg 19%
    19:00 +36°C° 0 mm 3 m/S 740 mmHg 20%
    20:00 +35°C° 0 mm 4 m/S 740 mmHg 22%
    21:00 +35°C° 0 mm 4 m/S 741 mmHg 25%
    22:00 +34°C° 0 mm 5 m/S 741 mmHg 28%
    23:00 +33°C° 0 mm 5 m/S 741 mmHg 32%

    22 September, Samstag

    Zeit Temperatur Niederschläge Wind Luftdruck Luftfeuchtigkeit
    00:00 +32°C° 0 mm 5 m/S 741 mmHg 35%
    01:00 +30°C° 0 mm 5 m/S 741 mmHg 38%
    02:00 +30°C° 0 mm 4 m/S 741 mmHg 40%
    03:00 +29°C° 0 mm 4 m/S 741 mmHg 42%
    04:00 +29°C° 0 mm 4 m/S 741 mmHg 43%
    05:00 +29°C° 0 mm 4 m/S 741 mmHg 43%
    06:00 +29°C° 0 mm 4 m/S 741 mmHg 43%
    07:00 +29°C° 0 mm 4 m/S 742 mmHg 44%
    08:00 +32°C° 0 mm 4 m/S 742 mmHg 38%
    09:00 +34°C° 0 mm 5 m/S 742 mmHg 33%
    10:00 +35°C° 0 mm 5 m/S 743 mmHg 28%
    11:00 +36°C° 0 mm 4 m/S 743 mmHg 25%
    12:00 +38°C° 0 mm 4 m/S 742 mmHg 22%
    13:00 +39°C° 0 mm 3 m/S 742 mmHg 19%
    14:00 +39°C° 0 mm 3 m/S 742 mmHg 19%
    15:00 +39°C° 0 mm 3 m/S 742 mmHg 19%
    16:00 +38°C° 0 mm 3 m/S 741 mmHg 19%
    17:00 +37°C° 0 mm 4 m/S 742 mmHg 22%
    18:00 +36°C° 0 mm 6 m/S 742 mmHg 26%
    19:00 +35°C° 0 mm 7 m/S 742 mmHg 30%
    20:00 +34°C° 0 mm 7 m/S 743 mmHg 36%
    21:00 +33°C° 0 mm 8 m/S 743 mmHg 43%
    22:00 +31°C° 0 mm 8 m/S 744 mmHg 49%
    23:00 +30°C° 0 mm 7 m/S 744 mmHg 50%

    23 September, Sonntag

    Zeit Temperatur Niederschläge Wind Luftdruck Luftfeuchtigkeit
    00:00 +29°C° 0 mm 7 m/S 744 mmHg 51%
    01:00 +29°C° 0 mm 6 m/S 744 mmHg 52%
    02:00 +28°C° 0 mm 6 m/S 743 mmHg 53%
    03:00 +28°C° 0 mm 6 m/S 743 mmHg 54%
    04:00 +28°C° 0 mm 5 m/S 743 mmHg 55%
    05:00 +28°C° 0 mm 5 m/S 744 mmHg 56%
    06:00 +27°C° 0 mm 5 m/S 744 mmHg 56%
    07:00 +27°C° 0 mm 5 m/S 744 mmHg 57%
    08:00 +29°C° 0 mm 6 m/S 744 mmHg 51%
    09:00 +32°C° 0 mm 6 m/S 745 mmHg 44%
    10:00 +34°C° 0 mm 6 m/S 745 mmHg 38%
    11:00 +35°C° 0 mm 6 m/S 745 mmHg 34%
    12:00 +36°C° 0 mm 5 m/S 744 mmHg 30%
    13:00 +37°C° 0 mm 4 m/S 744 mmHg 27%
    14:00 +38°C° 0 mm 4 m/S 744 mmHg 26%
    15:00 +38°C° 0 mm 4 m/S 743 mmHg 24%
    16:00 +38°C° 0 mm 4 m/S 743 mmHg 23%
    17:00 +37°C° 0 mm 5 m/S 743 mmHg 27%
    18:00 +36°C° 0 mm 6 m/S 743 mmHg 31%
    19:00 +35°C° 0 mm 7 m/S 744 mmHg 35%
    20:00 +33°C° 0 mm 7 m/S 744 mmHg 42%
    21:00 +32°C° 0 mm 7 m/S 744 mmHg 49%
    22:00 +29°C° 0 mm 8 m/S 744 mmHg 56%
    23:00 +29°C° 0 mm 7 m/S 744 mmHg 58%

    24 September, Montag

    Zeit Temperatur Niederschläge Wind Luftdruck Luftfeuchtigkeit
    00:00 +28°C° 0 mm 7 m/S 744 mmHg 60%
    01:00 +28°C° 0 mm 6 m/S 744 mmHg 62%
    02:00 +28°C° 0 mm 6 m/S 744 mmHg 63%
    03:00 +27°C° 0 mm 6 m/S 744 mmHg 64%
    04:00 +27°C° 0 mm 5 m/S 744 mmHg 65%
    05:00 +27°C° 0 mm 5 m/S 744 mmHg 65%
    06:00 +27°C° 0 mm 5 m/S 744 mmHg 65%
    07:00 +27°C° 0 mm 4 m/S 744 mmHg 64%
    08:00 +28°C° 0 mm 4 m/S 744 mmHg 57%
    09:00 +30°C° 0 mm 4 m/S 744 mmHg 49%
    10:00 +33°C° 0 mm 5 m/S 744 mmHg 41%
    11:00 +34°C° 0 mm 4 m/S 744 mmHg 37%
    12:00 +35°C° 0 mm 4 m/S 743 mmHg 33%
    13:00 +36°C° 0 mm 3 m/S 743 mmHg 29%
    14:00 +37°C° 0 mm 3 m/S 743 mmHg 28%
    15:00 +37°C° 0 mm 4 m/S 742 mmHg 26%
    16:00 +37°C° 0 mm 4 m/S 742 mmHg 25%
    17:00 +36°C° 0 mm 4 m/S 742 mmHg 27%
    18:00 +35°C° 0 mm 4 m/S 742 mmHg 29%
    19:00 +34°C° 0 mm 5 m/S 742 mmHg 31%
    20:00 +33°C° 0 mm 5 m/S 743 mmHg 38%
    21:00 +32°C° 0 mm 6 m/S 743 mmHg 44%
    22:00 +30°C° 0 mm 7 m/S 743 mmHg 51%
    23:00 +29°C° 0 mm 6 m/S 743 mmHg 53%
    Mehr zeigen